Home   Weather   Tehachapi   Past weeks
Flag for USA

Past Weather in Tehachapi, California, USA — Yesterday and Last 2 Weeks

Now
55 °F

Sunny.


Feels Like: 54 °F
Forecast: 69 / 47 °F
Wind: 7 mph from Northwest

Location: Tehachapi Municipal Airport

Current Time: Sep 17, 2019 at 9:41:20 am

Latest Report: Sep 17, 2019 at 9:15 am


Visibility: 10 mi

Pressure: 30.13 "Hg (26.07 "Hg at 1212m altitude)

Humidity: 59%

Dew Point: 41 °F

Location of TehachapiLocation

Past Weather in Tehachapi — Graph

°F

Tehachapi Temperature Yesterday

Maximum temperature yesterday: 72 °F (at 9:35 am)
Minimum temperature yesterday: 46 °F (at 6:55 am)
Average temperature yesterday: 60 °F

High & Low Weather Summary for the Past Weeks

 TemperatureHumidityPressure
High93 °F (Sep 2, 2:15 pm)100% (Sep 8, 3:35 am)30.24 "Hg (Sep 8, 3:35 am)
Low43 °F (Sep 12, 2:55 am)10% (Sep 12, 2:15 pm)29.94 "Hg (Sep 10, 5:15 am)
Average66 °F44%30.09 "Hg
* Reported Sep 2 8:15 am — Sep 17 8:35 am, Tehachapi. Weather by CustomWeather, © 2019

Note: Actual official high and low records may vary slightly from our data, if they occured in-between our weather recording intervals... More about our weather records

Advertising

Tehachapi Weather History for the Previous 24 Hours

Scroll right to see more
 ConditionsComfort  
Time TempWeatherWind HumidityBarometerVisibility
8:35 am
Tue, Sep 17
54 °FSunny.5 mph63%30.12 "Hg10 mi
8:15 am52 °FSunny.3 mph77%30.12 "Hg9 mi
7:55 am50 °FSunny.5 mph82%30.11 "Hg9 mi
7:35 am48 °FSunny.6 mph87%30.11 "Hg8 mi
7:15 am46 °FSunny.5 mph93%30.10 "Hg8 mi
6:35 am45 °FPassing clouds.3 mph93%30.09 "Hg9 mi
6:15 am46 °FPassing clouds.7 mph93%30.08 "Hg10 mi
5:55 am46 °FClear.9 mph93%30.08 "Hg10 mi
5:35 am46 °FPassing clouds.10 mph93%30.07 "Hg10 mi
5:15 am48 °FPassing clouds.10 mph87%30.07 "Hg10 mi
4:55 am48 °FPassing clouds.8 mph87%30.07 "Hg10 mi
4:35 am48 °FPassing clouds.10 mph87%30.07 "Hg10 mi
4:15 am48 °FClear.10 mph87%30.07 "Hg10 mi
3:55 am48 °FClear.10 mph87%30.06 "Hg10 mi
3:15 am48 °FPassing clouds.12 mph87%30.07 "Hg10 mi
2:55 am48 °FPassing clouds.10 mph87%30.07 "Hg10 mi
2:35 am50 °FPassing clouds.12 mph82%30.07 "Hg10 mi
2:15 am50 °FOvercast.13 mph88%30.06 "Hg10 mi
1:35 am52 °FMostly cloudy.9 mph82%30.07 "Hg10 mi
1:15 am52 °FMostly cloudy.12 mph82%30.06 "Hg10 mi
12:55 am54 °FMostly cloudy.15 mph77%30.05 "Hg10 mi
12:35 am54 °FMostly cloudy.16 mph77%30.04 "Hg10 mi
12:15 am54 °FOvercast.17 mph82%30.03 "Hg8 mi
11:55 pm
Mon, Sep 16
54 °FOvercast.15 mph82%30.04 "Hg8 mi
11:35 pm54 °FMostly cloudy.16 mph82%30.03 "Hg7 mi
11:15 pm54 °FPartly cloudy.20 mph82%30.04 "Hg8 mi
10:55 pm54 °FPassing clouds.17 mph82%30.04 "Hg7 mi
10:35 pm55 °FFog.18 mph82%30.04 "Hg5 mi
10:15 pm57 °FClear.20 mph72%30.02 "Hg6 mi
9:55 pm57 °FPassing clouds.20 mph63%30.01 "Hg9 mi
9:35 pm59 °FPassing clouds.18 mph55%30.01 "Hg10 mi
9:15 pm59 °FPassing clouds.15 mph55%30.02 "Hg10 mi
8:55 pm59 °FPassing clouds.14 mph55%30.01 "Hg10 mi
8:35 pm59 °FClear.14 mph55%30.01 "Hg10 mi
8:15 pm59 °FClear.14 mph51%30.00 "Hg10 mi
7:55 pm59 °FClear.13 mph51%30.00 "Hg10 mi
7:35 pm61 °FClear.14 mph52%30.00 "Hg10 mi
7:15 pm61 °FClear.12 mph48%30.00 "Hg10 mi
6:35 pm64 °FSunny.16 mph40%30.00 "Hg10 mi
5:55 pm66 °FSunny.17 mph35%30.00 "Hg10 mi
5:35 pm68 °FSunny.16 mph30%30.00 "Hg10 mi
5:15 pm68 °FSunny.13 mph28%30.00 "Hg10 mi
4:55 pm68 °FSunny.14 mph26%30.00 "Hg10 mi
4:35 pm70 °FSunny.15 mph25%30.00 "Hg10 mi
4:15 pm70 °FSunny.18 mph31%30.00 "Hg10 mi
3:55 pm70 °FSunny.20 mph33%30.00 "Hg9 mi
3:35 pm72 °FSunny.16 mph31%30.01 "Hg10 mi
3:15 pm72 °FSunny.16 mph33%30.01 "Hg9 mi
2:55 pm70 °FSunny.15 mph38%30.01 "Hg9 mi
2:35 pm68 °FSunny.15 mph40%30.02 "Hg10 mi
2:15 pm68 °FSunny.16 mph38%30.03 "Hg10 mi
1:35 pm68 °FSunny.13 mph35%30.03 "Hg10 mi
1:15 pm68 °FPassing clouds.16 mph35%30.04 "Hg10 mi
12:55 pm66 °FPassing clouds.16 mph37%30.04 "Hg10 mi
12:35 pm66 °FPassing clouds.18 mph37%30.04 "Hg10 mi
12:15 pm66 °FPassing clouds.15 mph37%30.04 "Hg10 mi
11:55 am66 °FPassing clouds.15 mph35%30.03 "Hg10 mi
11:35 am64 °FLight rain. Passing clouds.14 mph40%30.04 "Hg7 mi
11:15 am64 °FSunny.14 mph32%30.05 "Hg10 mi
10:55 am66 °FSunny.15 mph28%30.04 "Hg10 mi
10:35 am66 °FSunny.16 mph26%30.04 "Hg10 mi
10:15 am66 °FSunny.17 mph26%30.04 "Hg10 mi
9:55 am68 °FSunny.14 mph21%30.03 "Hg10 mi
9:35 am72 °FSunny.15 mph17%30.03 "Hg10 mi
9:15 am70 °FSunny.3 mph21%30.03 "Hg10 mi
Weather by CustomWeather, © 2019

See weather overview